sat.trackr.live / text

‹ back to catalog

STARLINK-36689

NORAD 67878 · 2026-034AE

PAYLOAD ACTIVE UNKNOWN

§ Identity

Operator
Country
US
Launch date
2026-02-20
Launch site
AFETR
Launch vehicle
Mass (kg)
RCS (m²)

Purposes: comms

External: N2YO · Heavens-Above · Gunter

§ Orbital elements

Epoch: 2026-09-19T19:31:59.852352Z

Period
93.85 min
Inclination
53.1589°
Eccentricity
0.0000656
Mean motion
15.34375662 rev/d
Perigee alt
462.3 km
Apogee alt
463.2 km
Semi-major
6,840.9 km
B*
3.2809e-4
RAAN
20.6587°
Arg perigee
85.3585°
Mean anomaly
274.7492°
Rev number
3,378

§ Raw data

STARLINK-366891 67878U 26034AE  26262.81388718  .00010716  00000+0  32809-3 0  99922 67878  53.1589  20.6587 0000656  85.3585 274.7492 15.34375662 33786

JSON: /api/v1/satellites/67878 · /tle

For live sub-satellite position, see the globe view (requires WebGL).

§ Visibility from observer

Set your observer location to see the next 7 days of passes ≥ 10°. The values pass through the URL so the page stays shareable.

No JS? Fill the form by hand. The geolocation button needs JavaScript.